Weather History for KNFL - November, 2013

Change the Weather History Date:

Sunday, November 24, 2013

  Actual Average Record
Temperature  
Mean Temperature 36 °F -  
Max Temperature 46 °F 53 °F 76 °F (1970)
Min Temperature 25 °F 23 °F 1 °F (1931)
Degree Days  
Heating Degree Days 30    
Moisture  
Dew Point 24 °F    
Average Humidity 72    
Maximum Humidity 89    
Minimum Humidity 35    
Precipitation  
Precipitation 0.00 in - - ()
Sea Level Pressure  
Sea Level Pressure 30.15 in    
Wind  
Wind Speed 2 mph (NE)    
Max Wind Speed 6 mph    
Max Gust Speed -    
Visibility 10 miles    
Events      
Averages and records for this station are not official NWS values.
T = Trace of Precipitation, MM = Missing Value Source: NWS Daily Summary

Daily Weather History Graph

Daily Weather History Graph

Search for Another Location

Airport or City:

Trip Planner

Search our weather history database for the weather conditions in past years. The results will help you decide how hot, cold, wet, or windy it might be!

Date:

Astronomy

Nov. 24, 2013 Rise Set
Actual Time 6:48 AM PST 4:34 PM PST
Civil Twilight 6:19 AM PST 5:03 PM PST
Nautical Twilight 5:46 AM PST 5:36 PM PST
Astronomical Twilight 5:14 AM PST 6:08 PM PST
Moon 11:03 PM PST (11/24) 11:40 AM PST (11/24)
Length of Visible Light 10h 43m
Length of Day
9h 45m
Waning Gibbous, 59% of the Moon is Illuminated
Nov 24
Waning Gibbous
Nov 25
Last Quarter
Dec 2
New
Dec 9
First Quarter
Dec 17
Full

Hourly Weather History & Observations

Time (PST) Temp. Windchill Dew Point Humidity Pressure Visibility Wind Dir Wind Speed Gust Speed Precip Events Conditions
12:56 AM 28.0 °F 24.2 °F 24.1 °F 85% 30.08 in 10.0 mi North 3.5 mph - N/A   Clear
1:56 AM 27.0 °F 23.0 °F 24.1 °F 89% 30.09 in - NNW 3.5 mph - N/A   Clear
2:56 AM 27.0 °F 23.0 °F 24.1 °F 89% 30.09 in - SSW 3.5 mph - N/A   Clear
3:56 AM 27.0 °F - 23.0 °F 85% 30.09 in - Calm Calm - N/A   Clear
4:56 AM 26.1 °F - 23.0 °F 88% 30.10 in 10.0 mi Calm Calm - N/A   Clear
5:56 AM 26.1 °F - 21.9 °F 84% 30.11 in 10.0 mi Calm Calm - N/A   Clear
6:56 AM 25.0 °F - 21.0 °F 85% 30.12 in 10.0 mi Calm Calm - N/A   Clear
7:56 AM 28.9 °F - 26.1 °F 89% 30.14 in 10.0 mi Calm Calm - N/A   Clear
8:56 AM 32.0 °F - 26.1 °F 79% 30.16 in 10.0 mi Calm Calm - N/A   Clear
9:56 AM 36.0 °F - 23.0 °F 59% 30.17 in 10.0 mi Calm Calm - N/A   Clear
10:56 AM 39.0 °F - 23.0 °F 53% 30.16 in 10.0 mi Calm Calm - N/A   Clear
11:01 AM 39.0 °F - 21.9 °F 50% 30.27 in 10.0 mi Calm Calm - N/A   Clear
11:56 AM 41.0 °F - 24.1 °F 51% 30.15 in 10.0 mi Calm Calm - N/A   Clear
12:56 PM 44.1 °F - 21.9 °F 42% 30.14 in 10.0 mi Calm Calm - N/A   Clear
1:56 PM 46.0 °F 43.9 °F 23.0 °F 40% 30.14 in 10.0 mi ENE 4.6 mph - N/A   Clear
2:56 PM 46.0 °F 44.8 °F 19.9 °F 35% 30.14 in 10.0 mi Variable 3.5 mph - N/A   Clear
3:56 PM 44.1 °F 40.8 °F 26.1 °F 49% 30.15 in 10.0 mi ENE 5.8 mph - N/A   Clear
4:56 PM 37.9 °F 34.4 °F 27.0 °F 65% 30.15 in 10.0 mi ENE 4.6 mph - N/A   Clear
5:56 PM 35.1 °F 31.0 °F 26.1 °F 70% 30.17 in 10.0 mi NE 4.6 mph - N/A   Clear
6:56 PM 33.1 °F - 27.0 °F 78% 30.18 in 10.0 mi Calm Calm - N/A   Clear
7:56 PM 30.0 °F - 26.1 °F 85% 30.20 in 10.0 mi Calm Calm - N/A   Clear
8:56 PM 30.0 °F - 26.1 °F 85% 30.21 in 10.0 mi Calm Calm - N/A   Clear
9:56 PM 28.0 °F 24.2 °F 25.0 °F 88% 30.21 in 10.0 mi East 3.5 mph - N/A   Clear
10:56 PM 28.9 °F - 25.0 °F 85% 30.22 in 10.0 mi Calm Calm - N/A   Clear
11:56 PM 28.0 °F - 24.1 °F 85% 30.22 in 10.0 mi Calm Calm - N/A   Clear